Time,TemperatureF,DewpointF,PressureIn,WindDirection,WindDirectionDegrees,WindSpeedMPH,WindSpeedGustMPH,Humidity,HourlyPrecipIn,Conditions,Clouds,dailyrainin,SoftwareType,DateUTC
2013-11-16 00:13:00,39.0,32.0,30.11,South,189,1.0,6.0,76,0.00,,,0.00,,2013-11-16 05:13:00,
2013-11-16 00:23:00,39.0,32.0,30.10,South,186,0.0,3.0,77,0.00,,,0.00,,2013-11-16 05:23:00,
2013-11-16 00:44:00,38.0,32.0,30.10,South,186,0.0,2.0,78,0.00,,,0.00,,2013-11-16 05:44:00,
2013-11-16 00:52:00,37.0,31.0,30.10,South,186,0.0,2.0,80,0.00,,,0.00,,2013-11-16 05:52:00,
2013-11-16 01:13:00,37.0,32.0,30.10,South,186,0.0,1.0,82,0.00,,,0.00,,2013-11-16 06:13:00,
2013-11-16 01:22:00,36.0,31.0,30.10,South,186,0.0,1.0,83,0.00,,,0.00,,2013-11-16 06:22:00,
2013-11-16 01:42:00,36.0,32.0,30.10,South,186,0.0,1.0,84,0.00,,,0.00,,2013-11-16 06:42:00,
2013-11-16 01:52:00,36.0,32.0,30.09,South,186,0.0,2.0,85,0.00,,,0.00,,2013-11-16 06:52:00,
2013-11-16 02:22:00,37.0,33.0,30.09,South,186,1.0,3.0,85,0.00,,,0.00,,2013-11-16 07:22:00,
2013-11-16 02:42:00,38.0,34.0,30.09,South,186,0.0,2.0,85,0.00,,,0.00,,2013-11-16 07:42:00,
2013-11-16 02:52:00,38.0,34.0,30.10,South,186,0.0,2.0,84,0.00,,,0.00,,2013-11-16 07:52:00,
2013-11-16 03:22:00,38.0,34.0,30.10,South,186,0.0,1.0,85,0.00,,,0.00,,2013-11-16 08:22:00,
2013-11-16 03:52:00,37.0,34.0,30.10,South,186,0.0,2.0,87,0.00,,,0.00,,2013-11-16 08:52:00,
2013-11-16 04:11:00,37.0,34.0,30.10,South,186,0.0,1.0,88,0.00,,,0.00,,2013-11-16 09:11:00,
2013-11-16 04:22:00,37.0,34.0,30.10,South,186,0.0,0.0,88,0.00,,,0.00,,2013-11-16 09:22:00,
2013-11-16 04:43:00,37.0,34.0,30.11,South,186,0.0,2.0,89,0.00,,,0.00,,2013-11-16 09:43:00,
2013-11-16 04:53:00,38.0,35.0,30.11,South,186,0.0,1.0,90,0.00,,,0.00,,2013-11-16 09:53:00,
2013-11-16 05:23:00,39.0,36.0,30.11,South,186,0.0,1.0,90,0.00,,,0.00,,2013-11-16 10:23:00,
2013-11-16 05:43:00,40.0,37.0,30.11,South,186,0.0,2.0,90,0.00,,,0.00,,2013-11-16 10:43:00,
2013-11-16 05:52:00,40.0,37.0,30.11,South,186,0.0,3.0,90,0.00,,,0.00,,2013-11-16 10:52:00,
2013-11-16 06:12:00,40.0,37.0,30.10,South,182,1.0,4.0,90,0.00,,,0.00,,2013-11-16 11:12:00,
2013-11-16 06:22:00,41.0,39.0,30.10,SE,142,2.0,5.0,91,0.00,,,0.00,,2013-11-16 11:22:00,
2013-11-16 06:42:00,41.0,39.0,30.09,SE,142,2.0,3.0,92,0.00,,,0.00,,2013-11-16 11:42:00,
2013-11-16 06:53:00,41.0,39.0,30.10,SE,142,1.0,4.0,92,0.00,,,0.00,,2013-11-16 11:53:00,
2013-11-16 07:12:00,42.0,40.0,30.09,SE,137,2.0,4.0,92,0.00,,,0.00,,2013-11-16 12:12:00,
2013-11-16 07:22:00,42.0,40.0,30.10,SE,137,0.0,4.0,92,0.00,,,0.00,,2013-11-16 12:22:00,
2013-11-16 07:42:00,43.0,41.0,30.10,SE,137,0.0,4.0,92,0.00,,,0.00,,2013-11-16 12:42:00,
2013-11-16 07:52:00,43.0,41.0,30.10,SSE,150,3.0,6.0,92,0.00,,,0.00,,2013-11-16 12:52:00,
2013-11-16 08:11:00,44.0,42.0,30.11,South,172,0.0,5.0,91,0.00,,,0.00,,2013-11-16 13:11:00,
2013-11-16 08:22:00,45.0,43.0,30.11,SSE,152,2.0,4.0,91,0.00,,,0.00,,2013-11-16 13:22:00,
2013-11-16 08:42:00,45.0,42.0,30.11,SE,143,1.0,4.0,90,0.00,,,0.00,,2013-11-16 13:42:00,
2013-11-16 08:52:00,45.0,42.0,30.10,SE,136,3.0,6.0,90,0.00,,,0.00,,2013-11-16 13:52:00,
2013-11-16 09:11:00,45.0,43.0,30.10,SSE,148,2.0,7.0,91,0.00,,,0.00,,2013-11-16 14:11:00,
2013-11-16 09:22:00,46.0,44.0,30.10,SE,142,2.0,4.0,91,0.00,,,0.00,,2013-11-16 14:22:00,
2013-11-16 09:42:00,46.0,44.0,30.10,SE,143,3.0,6.0,91,0.00,,,0.00,,2013-11-16 14:42:00,
2013-11-16 09:52:00,47.0,45.0,30.09,SE,146,4.0,11.0,91,0.00,,,0.00,,2013-11-16 14:52:00,
2013-11-16 10:22:00,47.0,45.0,30.09,SE,146,2.0,7.0,91,0.00,,,0.00,,2013-11-16 15:22:00,
2013-11-16 10:43:00,48.0,45.0,30.09,SE,145,2.0,5.0,91,0.00,,,0.00,,2013-11-16 15:43:00,
2013-11-16 10:53:00,48.0,45.0,30.09,SSE,167,2.0,8.0,91,0.00,,,0.00,,2013-11-16 15:53:00,
2013-11-16 11:23:00,49.0,46.0,30.07,South,178,5.0,12.0,90,0.00,,,0.00,,2013-11-16 16:23:00,
2013-11-16 11:43:00,50.0,47.0,30.08,SSE,155,2.0,10.0,90,0.00,,,0.00,,2013-11-16 16:43:00,
2013-11-16 11:53:00,50.0,47.0,30.07,SSE,156,1.0,7.0,90,0.00,,,0.00,,2013-11-16 16:53:00,
2013-11-16 12:12:00,50.0,47.0,30.06,SSE,167,1.0,7.0,90,0.00,,,0.00,,2013-11-16 17:12:00,
2013-11-16 12:23:00,51.0,48.0,30.05,SSE,153,2.0,7.0,90,0.00,,,0.00,,2013-11-16 17:23:00,
2013-11-16 12:43:00,52.0,49.0,30.03,South,171,3.0,9.0,89,0.00,,,0.00,,2013-11-16 17:43:00,
2013-11-16 12:52:00,53.0,50.0,30.02,SSE,157,5.0,11.0,88,0.00,,,0.00,,2013-11-16 17:52:00,
2013-11-16 13:12:00,53.0,49.0,30.01,SSE,153,5.0,12.0,87,0.00,,,0.00,,2013-11-16 18:12:00,
2013-11-16 13:23:00,54.0,51.0,30.01,SSE,155,3.0,8.0,88,0.00,,,0.00,,2013-11-16 18:23:00,
2013-11-16 13:42:00,55.0,51.0,30.00,SSW,194,5.0,13.0,85,0.00,,,0.00,,2013-11-16 18:42:00,
2013-11-16 13:52:00,56.0,51.0,29.99,SSE,153,5.0,9.0,83,0.00,,,0.00,,2013-11-16 18:52:00,
2013-11-16 14:12:00,56.0,51.0,29.98,South,169,5.0,12.0,82,0.00,,,0.00,,2013-11-16 19:12:00,
2013-11-16 14:22:00,56.0,51.0,29.97,SSE,166,5.0,11.0,82,0.00,,,0.00,,2013-11-16 19:22:00,
2013-11-16 14:42:00,56.0,51.0,29.96,SSE,161,3.0,9.0,82,0.00,,,0.00,,2013-11-16 19:42:00,
2013-11-16 14:53:00,56.0,50.0,29.96,SE,138,7.0,14.0,81,0.00,,,0.00,,2013-11-16 19:53:00,
2013-11-16 15:12:00,55.0,50.0,29.96,SSE,166,3.0,11.0,83,0.00,,,0.00,,2013-11-16 20:12:00,
2013-11-16 15:22:00,55.0,50.0,29.96,South,182,5.0,11.0,84,0.00,,,0.00,,2013-11-16 20:22:00,
2013-11-16 15:42:00,55.0,50.0,29.95,South,171,4.0,13.0,84,0.00,,,0.00,,2013-11-16 20:42:00,
2013-11-16 16:22:00,54.0,50.0,29.95,SSE,151,4.0,11.0,85,0.00,,,0.00,,2013-11-16 21:22:00,
2013-11-16 16:44:00,54.0,50.0,29.96,SSE,164,4.0,8.0,85,0.00,,,0.00,,2013-11-16 21:44:00,
2013-11-16 16:54:00,54.0,50.0,29.95,South,169,6.0,11.0,85,0.00,,,0.00,,2013-11-16 21:54:00,
2013-11-16 17:13:00,54.0,50.0,29.95,South,177,3.0,10.0,86,0.00,,,0.00,,2013-11-16 22:13:00,
2013-11-16 17:24:00,54.0,50.0,29.94,SSE,163,4.0,9.0,86,0.00,,,0.00,,2013-11-16 22:24:00,
2013-11-16 17:42:00,53.0,49.0,29.94,SSE,161,5.0,11.0,86,0.00,,,0.00,,2013-11-16 22:42:00,
2013-11-16 17:53:00,53.0,49.0,29.93,SSW,196,5.0,12.0,87,0.00,,,0.00,,2013-11-16 22:53:00,
2013-11-16 18:13:00,53.0,50.0,29.94,SE,130,3.0,10.0,88,0.00,,,0.00,,2013-11-16 23:13:00,
2013-11-16 18:22:00,53.0,50.0,29.94,SSE,161,5.0,10.0,88,0.00,,,0.00,,2013-11-16 23:22:00,
2013-11-16 18:43:00,53.0,50.0,29.94,SSE,165,5.0,10.0,89,0.00,,,0.00,,2013-11-16 23:43:00,
2013-11-16 18:53:00,53.0,50.0,29.93,SSE,159,4.0,11.0,89,0.00,,,0.00,,2013-11-16 23:53:00,
2013-11-16 19:12:00,53.0,50.0,29.93,SE,146,4.0,14.0,90,0.00,,,0.00,,2013-11-17 00:12:00,
2013-11-16 19:22:00,54.0,51.0,29.92,SSE,150,4.0,11.0,90,0.00,,,0.00,,2013-11-17 00:22:00,
2013-11-16 19:42:00,54.0,51.0,29.91,South,180,4.0,15.0,90,0.00,,,0.00,,2013-11-17 00:42:00,
2013-11-16 19:52:00,54.0,51.0,29.91,SSE,156,5.0,10.0,90,0.00,,,0.00,,2013-11-17 00:52:00,
2013-11-16 20:22:00,55.0,52.0,29.89,SSW,195,5.0,12.0,90,0.00,,,0.00,,2013-11-17 01:22:00,
2013-11-16 20:42:00,55.0,52.0,29.89,South,184,3.0,10.0,90,0.00,,,0.00,,2013-11-17 01:42:00,
2013-11-16 20:52:00,55.0,52.0,29.89,South,179,5.0,10.0,90,0.00,,,0.00,,2013-11-17 01:52:00,
2013-11-16 21:12:00,56.0,53.0,29.88,South,175,4.0,8.0,89,0.00,,,0.00,,2013-11-17 02:12:00,
2013-11-16 21:22:00,56.0,53.0,29.87,South,184,5.0,12.0,89,0.00,,,0.00,,2013-11-17 02:22:00,
2013-11-16 21:52:00,56.0,53.0,29.85,SSE,155,5.0,12.0,89,0.00,,,0.00,,2013-11-17 02:52:00,
2013-11-16 22:22:00,57.0,54.0,29.84,SSE,154,5.0,12.0,89,0.00,,,0.00,,2013-11-17 03:22:00,
2013-11-16 22:56:00,56.0,54.0,29.83,SSW,198,3.0,12.0,92,0.00,,,0.00,,2013-11-17 03:56:00,
2013-11-16 23:03:00,-999.0,-99.9,29.84,South,184,5.0,11.0,-999,-99.99,,,-99.99,,2013-11-17 04:03:00,
2013-11-16 23:24:00,56.0,54.0,29.84,South,184,4.0,10.0,93,0.00,,,0.00,,2013-11-17 04:24:00,
2013-11-16 23:43:00,56.0,54.0,29.83,South,182,4.0,9.0,93,0.00,,,0.00,,2013-11-17 04:43:00,
2013-11-16 23:53:00,56.0,54.0,29.84,SW,221,3.0,7.0,93,0.01,,,0.01,,2013-11-17 04:53:00,